カタログに戻る

NOAA 17 DEB

LostPO
NORAD 48712·DEBRIS·🇺🇸 United States

打ち上げ Jun 24, 2002 から Vandenberg Space Force Base

Loading…

次のパス (今後24時間)

TLE

古いSource: Space-Track

元期: Nov 11, 2025, 02:18 UTC

1 48712U 02032AV  25315.09643291  .00236724  00000-0  88856-2 0  9990
2 48712  98.6891   1.3858 0009520 185.4684 174.6448 15.26123199242924

AllMySatでNOAA 17 DEBをリアルタイム追跡

Download on the App Store